Terminal Aerodrome Forecast
Issued by NWS Cleveland, OH

Home | Current Version | Previous Version | Graphics & Text | Print | Product List | Glossary On
Versions: 1 2 3 4 5 6 7 8 9 10 11 12 13 14 15 16 17
000
FTUS41 KCLE 101958 AAA
TAFMFD
TAF AMD
KMFD 101958Z 1020/1118 21015KT P6SM SCT025 OVC080
     FM110200 24010KT P6SM SCT015 OVC025
      TEMPO 1102/1105 SCT025 OVC035
     FM110500 27008KT P6SM BKN015 OVC025
     FM111200 25004KT P6SM BKN015 OVC025
     FM111400 24005KT P6SM BKN035=

USA.gov is the U.S. government's official web portal to all federal, state and local government web resources and services.